Weather in Verhoyansk

Russia / Sakha (Yakutia) Republic     67°33′00″N   133°23′26″E
temp.,
°C
wind,
m/s
gust,
m/s
humid.,
%
clouds,
%
prec.,
mm/h
press.,
hPa
HPBL,
m
5 august, thu
thu501:00+10nnw335060 0.0 101413
04:00+8nnw225788 0.0 101511
07:00+11n35465 0.0 1016312
10:00+16nne67320 0.0 1015902
13:00+19ne77270 0.0 10131400
16:00+22nne88240 0.0 10122086
19:00+19nne1111310 0.0 10131358
22:00+9nne8146013 0.0 1014480
6 august, fri
fri601:00+8n486790 0.0 1015194
04:00+5nnw33875 0.0 101644
07:00+7n12725 0.0 1017323
10:00+11ene22540 0.0 1017832
13:00+15ene11410 0.0 10161146
16:00+18s12350 0.0 10151444
19:00+19ne34330 0.0 10151185
22:00+14nne33472 0.0 101614
7 august, sat
sat701:00+11ne33552 0.0 101713
04:00+9ene22622 0.0 101910
07:00+14ne11465 0.0 1020110
10:00+19ene113593 0.0 1021478
13:00+23ene222790 0.0 10201034
16:00+26ese342010 0.0 10191880
19:00+26ese34225 0.0 10191773
22:00+18ne22375 0.0 101911
8 august, sun
sun801:00+15ne224723 0.0 101911
04:00+14ne225235 0.0 101911
07:00+18ene11425 0.0 101984
10:00+23se13305 0.0 1018655
13:00+27ssw34265 0.0 10171599
16:00+28ssw242313 0.0 10152060
19:00+28sw14235 0.0 10141922
22:00+21ne22375 0.0 101311
9 august, mon
mon901:00+17ene11545 0.0 101311
04:00+16ene11585 0.0 101211
07:00+21s234113 0.0 1013106
10:00+25ssw56285 0.0 1012765
13:00+27ssw67235 0.0 10111832
16:00+28ssw672142 0.0 10092236
19:00+28ssw562117 0.0 10092135
22:00+21sse33375 0.0 100812